TimeCDT,TemperatureF,Dew PointF,Humidity,Sea Level PressureIn,VisibilityMPH,Wind Direction,Wind SpeedMPH,Gust SpeedMPH,PrecipitationIn,Events,Conditions,WindDirDegrees,DateUTC
12:15 AM,44.6,39.0,81,30.22,10.0,Calm,Calm,-,N/A,,Clear,0,2012-10-08 05:15:00
12:35 AM,44.6,39.2,81,30.22,10.0,Calm,Calm,-,N/A,,Clear,0,2012-10-08 05:35:00
12:55 AM,44.2,39.2,82,30.22,10.0,Calm,Calm,-,N/A,,Clear,0,2012-10-08 05:55:00
1:15 AM,43.7,39.2,84,30.22,10.0,Calm,Calm,-,N/A,,Scattered Clouds,0,2012-10-08 06:15:00
1:35 AM,44.6,39.9,84,30.22,10.0,Calm,Calm,-,N/A,,Overcast,0,2012-10-08 06:35:00
1:55 AM,45.1,40.3,83,30.21,10.0,Calm,Calm,-,N/A,,Overcast,0,2012-10-08 06:55:00
2:15 AM,45.5,40.8,84,30.22,10.0,Calm,Calm,-,N/A,,Overcast,0,2012-10-08 07:15:00
2:35 AM,46.0,41.0,83,30.22,10.0,Calm,Calm,-,N/A,,Overcast,0,2012-10-08 07:35:00
2:55 AM,46.0,41.2,83,30.21,10.0,Calm,Calm,-,N/A,,Overcast,0,2012-10-08 07:55:00
3:15 AM,46.4,41.4,83,30.21,10.0,Calm,Calm,-,N/A,,Overcast,0,2012-10-08 08:15:00
3:35 AM,46.8,41.0,80,30.20,10.0,Calm,Calm,-,N/A,,Overcast,0,2012-10-08 08:35:00
3:55 AM,46.9,41.4,81,30.20,10.0,Calm,Calm,-,N/A,,Overcast,0,2012-10-08 08:55:00
4:15 AM,47.5,41.7,80,30.19,10.0,Calm,Calm,-,N/A,,Overcast,0,2012-10-08 09:15:00
4:35 AM,48.2,41.2,77,30.19,10.0,Calm,Calm,-,N/A,,Overcast,0,2012-10-08 09:35:00
4:55 AM,48.2,40.6,75,30.19,10.0,Calm,Calm,-,N/A,,Overcast,0,2012-10-08 09:55:00
5:15 AM,48.2,40.6,75,30.19,10.0,Calm,Calm,-,N/A,,Overcast,0,2012-10-08 10:15:00
5:35 AM,48.2,40.6,75,30.19,10.0,Calm,Calm,-,N/A,,Overcast,0,2012-10-08 10:35:00
5:55 AM,48.2,41.0,76,30.19,10.0,Calm,Calm,-,N/A,,Overcast,0,2012-10-08 10:55:00
6:15 AM,48.2,41.2,77,30.19,10.0,Calm,Calm,-,N/A,,Overcast,0,2012-10-08 11:15:00
6:35 AM,48.2,41.4,77,30.19,10.0,Calm,Calm,-,N/A,,Overcast,0,2012-10-08 11:35:00
6:55 AM,48.2,41.5,78,30.20,10.0,Calm,Calm,-,N/A,,Overcast,0,2012-10-08 11:55:00
7:15 AM,48.2,41.2,77,30.20,10.0,Calm,Calm,-,N/A,,Overcast,0,2012-10-08 12:15:00
7:35 AM,48.2,41.4,77,30.20,10.0,Calm,Calm,-,N/A,,Overcast,0,2012-10-08 12:35:00
7:55 AM,48.2,41.9,79,30.20,10.0,Calm,Calm,-,N/A,,Overcast,0,2012-10-08 12:55:00
8:15 AM,47.8,41.9,80,30.21,10.0,Calm,Calm,-,N/A,,Overcast,0,2012-10-08 13:15:00
8:35 AM,48.2,42.1,79,30.21,10.0,Calm,Calm,-,N/A,,Overcast,0,2012-10-08 13:35:00
8:55 AM,47.8,42.1,80,30.22,10.0,Calm,Calm,-,N/A,,Overcast,0,2012-10-08 13:55:00
9:15 AM,48.2,42.4,80,30.22,10.0,Calm,Calm,-,N/A,,Overcast,0,2012-10-08 14:15:00
9:35 AM,48.2,42.6,81,30.22,10.0,Calm,Calm,-,N/A,,Overcast,0,2012-10-08 14:35:00
9:55 AM,48.2,42.6,81,30.22,10.0,Calm,Calm,-,N/A,,Overcast,0,2012-10-08 14:55:00
10:15 AM,48.2,42.3,80,30.22,10.0,Calm,Calm,-,N/A,,Overcast,0,2012-10-08 15:15:00
10:35 AM,48.4,42.6,80,30.22,10.0,Calm,Calm,-,N/A,,Overcast,0,2012-10-08 15:35:00
10:55 AM,48.7,42.4,79,30.21,10.0,East,5.8,-,N/A,,Overcast,80,2012-10-08 15:55:00
11:35 AM,49.5,42.8,78,30.20,10.0,Calm,Calm,-,N/A,,Overcast,0,2012-10-08 16:35:00
12:15 PM,50.2,43.2,77,30.19,10.0,Calm,Calm,-,N/A,,Overcast,0,2012-10-08 17:15:00
12:35 PM,51.3,43.3,74,30.17,10.0,Calm,Calm,-,N/A,,Overcast,0,2012-10-08 17:35:00
12:55 PM,52.0,43.7,73,30.16,10.0,East,6.9,-,N/A,,Overcast,100,2012-10-08 17:55:00
1:15 PM,53.8,44.4,71,30.15,10.0,East,5.8,-,N/A,,Overcast,100,2012-10-08 18:15:00
1:35 PM,56.3,45.1,66,30.13,10.0,East,8.1,-,N/A,,Mostly Cloudy,100,2012-10-08 18:35:00
2:15 PM,58.8,45.3,61,30.10,10.0,ESE,3.5,-,N/A,,Clear,120,2012-10-08 19:15:00
2:35 PM,60.8,46.2,59,30.08,10.0,SE,3.5,-,N/A,,Clear,130,2012-10-08 19:35:00
2:55 PM,61.7,46.0,56,30.06,10.0,East,8.1,-,N/A,,Clear,90,2012-10-08 19:55:00
3:35 PM,63.7,46.4,53,30.03,10.0,ESE,9.2,-,N/A,,Clear,110,2012-10-08 20:35:00
3:55 PM,66.0,46.9,50,30.02,10.0,East,9.2,-,N/A,,Clear,100,2012-10-08 20:55:00
4:15 PM,66.6,47.1,50,30.02,10.0,East,9.2,-,N/A,,Clear,90,2012-10-08 21:15:00
4:35 PM,67.6,47.3,48,30.00,10.0,ESE,10.4,-,N/A,,Clear,120,2012-10-08 21:35:00
4:55 PM,68.5,47.5,47,30.00,10.0,East,10.4,-,N/A,,Clear,100,2012-10-08 21:55:00
5:15 PM,69.4,47.8,46,29.99,10.0,East,9.2,-,N/A,,Clear,100,2012-10-08 22:15:00
5:55 PM,70.0,48.2,46,29.98,10.0,East,10.4,-,N/A,,Clear,90,2012-10-08 22:55:00
6:15 PM,68.9,48.4,48,29.98,10.0,East,11.5,-,N/A,,Clear,100,2012-10-08 23:15:00
6:35 PM,68.2,48.6,49,29.98,10.0,ESE,9.2,-,N/A,,Clear,110,2012-10-08 23:35:00
6:55 PM,68.0,48.9,50,29.97,10.0,East,8.1,-,N/A,,Clear,90,2012-10-08 23:55:00
7:15 PM,66.9,49.1,53,29.98,10.0,East,6.9,-,N/A,,Clear,80,2012-10-09 00:15:00
7:35 PM,64.8,49.3,57,29.98,10.0,East,5.8,-,N/A,,Clear,80,2012-10-09 00:35:00
8:15 PM,61.7,49.3,64,29.98,10.0,East,6.9,-,N/A,,Clear,80,2012-10-09 01:15:00
8:35 PM,60.6,49.3,66,29.98,10.0,East,4.6,-,N/A,,Clear,80,2012-10-09 01:35:00
8:55 PM,60.3,49.3,67,29.98,10.0,Calm,Calm,-,N/A,,Clear,0,2012-10-09 01:55:00
9:15 PM,61.2,48.9,64,29.98,10.0,NE,3.5,-,N/A,,Clear,50,2012-10-09 02:15:00
9:35 PM,61.0,48.6,64,29.98,10.0,NE,3.5,-,N/A,,Clear,40,2012-10-09 02:35:00
9:55 PM,60.1,48.4,65,29.98,10.0,North,4.6,-,N/A,,Clear,360,2012-10-09 02:55:00
10:35 PM,57.2,48.2,72,29.99,10.0,NNW,5.8,-,N/A,,Clear,340,2012-10-09 03:35:00
11:15 PM,55.4,48.2,77,29.99,10.0,North,4.6,-,N/A,,Clear,350,2012-10-09 04:15:00
11:35 PM,55.4,48.0,76,29.98,10.0,North,3.5,-,N/A,,Clear,360,2012-10-09 04:35:00
11:55 PM,54.5,47.5,77,29.98,10.0,North,3.5,-,N/A,,Clear,350,2012-10-09 04:55:00